Location: London
(42.9830°N, 81.2500°W)
Time: 04:57:18
(UTC-04:00)

Amateur Radio Satellites - All Passes

Search period start: 20 October 2017 04:27
Search period end: 21 October 2017 04:27
Location: London, 42.9830°N, 81.2500°W

Satellite Date Start Highest point End Downlink Frequencies (MHz)
Time Altitude Azimuth
KKS-1 20 Oct 04:39:42 04:42:57 20° 64° (ENE) 04:46:12 437.445
MOZHAYETS 4 20 Oct 04:45:31 04:49:24 26° 265° (W) 04:53:18
CUBESAT XI-V 20 Oct 04:54:26 04:59:05 89° 85° (E) 05:03:44 437.345
Oscar 19 20 Oct 04:57:29 04:59:11 12° 303° (WNW) 05:00:53 437.125/150
AO-7 20 Oct 05:05:19 05:13:39 73° 106° (ESE) 05:21:57 .
ITUPSAT 1 20 Oct 05:11:24 05:14:36 18° 268° (W) 05:17:49 437.325
NO-84 20 Oct 05:12:46 05:16:56 46° 327° (NNW) 05:20:59 435.350 FM
STARS 20 Oct 05:13:55 05:17:00 19° 64° (ENE) 05:20:06 437.465
ITAMSAT 1 20 Oct 05:26:17 05:31:32 79° 286° (WNW) 05:36:46 435.822/435.867
Gurwin Techsat 1B 20 Oct 05:26:28 05:27:01 10° 305° (NW) 05:27:34 435.225
BEESAT 20 Oct 05:28:57 05:30:38 12° 271° (W) 05:32:21 436.000
O/OREOS (USA 219) 20 Oct 05:56:10 05:58:52 15° 51° (NE) 06:01:33 437.305
RS-15 20 Oct 06:04:19 06:14:04 26° 354° (N) 06:23:35 29.354- 29.394
KKS-1 20 Oct 06:15:01 06:19:12 41° 261° (W) 06:23:27 437.445
DOVE 4 20 Oct 06:22:42 06:27:37 57° 100° (E) 06:32:44 437.250
XW-2B 20 Oct 06:33:45 06:35:43 14° 91° (E) 06:37:41 145.730 - 145.750
STARS 20 Oct 06:48:50 06:53:00 44° 261° (W) 06:57:15 437.465
NO-84 20 Oct 06:52:14 06:55:09 18° 346° (NNW) 06:57:58 435.350 FM
XW-2C 20 Oct 06:55:59 06:59:09 26° 95° (E) 07:02:18 145.795 - 145.815
AO-7 20 Oct 06:58:59 07:05:43 29° 306° (NW) 07:12:27 .
ITAMSAT 1 20 Oct 07:08:21 07:10:07 12° 304° (NW) 07:11:53 435.822/435.867
STRAND 1 20 Oct 07:13:24 07:17:56 33° 67° (ENE) 07:22:31 437.568
HO-68 20 Oct 07:17:33 07:22:26 19° 90° (E) 07:27:16 435.675
SO-50 20 Oct 07:26:48 07:31:04 44° 118° (ESE) 07:35:21 436.795
CUTE-I 20 Oct 07:32:31 07:37:48 54° 100° (E) 07:43:03 437.470
O/OREOS (USA 219) 20 Oct 07:34:12 07:38:48 70° 249° (WSW) 07:43:21 437.305
CUTE 1.7 + AOD 2 20 Oct 07:37:22 07:40:14 18° 92° (E) 07:43:06 437.475
KAITUO 1B 20 Oct 07:39:38 07:43:18 66° 101° (E) 07:46:57 145.475/437.950
XW-2F 20 Oct 07:40:48 07:44:33 89° 92° (E) 07:48:16 145.980 - 146.000
LilacSat-2 20 Oct 07:45:17 07:49:02 69° 286° (WNW) 07:52:46 437.200
SEEDS 20 Oct 07:45:50 07:47:52 13° 90° (E) 07:49:53 437.485
XW-2D 20 Oct 07:53:00 07:56:41 57° 285° (WNW) 08:00:20 145.860 - 145.880
NUDT-PHONESAT 20 Oct 07:54:24 07:58:04 83° 285° (WNW) 08:01:43 437.300
DOVE 4 20 Oct 08:01:25 08:04:54 19° 296° (WNW) 08:08:28 437.250
XW-2B 20 Oct 08:06:34 08:10:05 40° 288° (WNW) 08:13:36 145.730 - 145.750
FO-29 20 Oct 08:11:14 08:14:59 20° 59° (ENE) 08:18:55 435.910
AAUSAT CUBESAT 2 20 Oct 08:11:34 08:12:37 11° 89° (E) 08:13:40 437.432
RS-15 20 Oct 08:20:41 08:31:30 35° 29° (NNE) 08:41:49 29.354- 29.394
XW-2C 20 Oct 08:30:18 08:33:13 22° 292° (WNW) 08:36:07 145.795 - 145.815
NO-84 20 Oct 08:31:18 08:33:50 16° 8° (N) 08:36:16 435.350 FM
AO-73 20 Oct 08:31:36 08:32:12 10° 88° (E) 08:32:47 145.935
CUBEBUG 2 20 Oct 08:33:32 08:37:59 44° 98° (E) 08:42:18 437.445
YUBILEINY 20 Oct 08:34:45 08:39:34 16° 75° (ENE) 08:44:24 435.215
ZACube-1 20 Oct 08:51:10 08:54:26 20° 92° (E) 08:57:38 437.345
STRAND 1 20 Oct 08:52:32 08:57:04 32° 264° (W) 09:01:40 437.568
HO-68 20 Oct 09:03:41 09:10:56 82° 288° (WNW) 09:18:07 435.675
PCSat 20 Oct 09:05:42 09:11:02 63° 116° (ESE) 09:16:24 145.827
SO-50 20 Oct 09:07:58 09:11:41 25° 317° (NW) 09:15:27 436.795
UWE-3 20 Oct 09:12:10 09:16:41 65° 101° (E) 09:21:02 435.000/436.395/437.385
CUTE 1.7 + AOD 2 20 Oct 09:12:18 09:16:14 40° 288° (WNW) 09:20:09 437.475
CUTE-I 20 Oct 09:13:23 09:17:26 22° 298° (WNW) 09:21:29 437.470
UNISAT 6 20 Oct 09:16:15 09:19:26 19° 63° (ENE) 09:22:40 437.425
SEEDS 20 Oct 09:19:47 09:23:51 53° 287° (WNW) 09:27:55 437.485
Oscar 11 20 Oct 09:27:57 09:31:46 30° 96° (E) 09:35:32 .
TIGRISAT 20 Oct 09:30:33 09:34:12 23° 66° (ENE) 09:37:54 435.000
XW-2A 20 Oct 09:32:13 09:35:28 51° 286° (WNW) 09:38:43 145.665 - 145.685
AAUSAT CUBESAT 2 20 Oct 09:44:23 09:48:28 64° 285° (WNW) 09:52:33 437.432
FO-29 20 Oct 09:54:26 09:59:33 57° 260° (W) 10:05:04 435.910
AO-73 20 Oct 10:04:36 10:08:58 73° 284° (WNW) 10:13:12 145.935
NO-84 20 Oct 10:08:35 10:12:13 34° 29° (NNE) 10:15:34 435.350 FM
CUBEBUG 2 20 Oct 10:10:50 10:14:15 21° 296° (WNW) 10:17:36 437.445
PRISM 20 Oct 10:24:36 10:28:18 36° 70° (ENE) 10:32:02 437.425
YUBILEINY 20 Oct 10:26:14 10:34:54 83° 96° (E) 10:43:40 435.215
nSIGHT-1 20 Oct 10:26:36 10:29:23 28° 137° (SE) 10:32:11 .
ZACube-1 20 Oct 10:26:47 10:30:51 37° 290° (WNW) 10:34:47 437.345
EO-88 20 Oct 10:28:07 10:30:04 14° 92° (E) 10:32:01 145.990 - 145.960
RS-15 20 Oct 10:33:46 10:45:49 88° 57° (ENE) 10:57:10 29.354- 29.394
Max Valier Satellite 20 Oct 10:36:34 10:39:39 25° 95° (E) 10:42:42 145.860
UWE-3 20 Oct 10:50:12 10:52:33 14° 298° (WNW) 10:54:51 435.000/436.395/437.385
PCSat 20 Oct 10:50:32 10:54:51 24° 315° (NW) 10:59:13 145.827
UNISAT 6 20 Oct 10:51:12 10:55:43 51° 260° (W) 11:00:20 437.425
HO-68 20 Oct 10:53:07 10:57:35 18° 308° (NW) 11:02:03 435.675
ISS 20 Oct 10:58:33 11:01:42 50° 142° (SE) 11:04:53 437.550
Oscar 11 20 Oct 11:04:15 11:07:46 25° 293° (WNW) 11:11:17 .
TIGRISAT 20 Oct 11:06:17 11:10:38 39° 263° (W) 11:15:04 435.000
DELFI C3 20 Oct 11:13:58 11:17:57 79° 282° (WNW) 11:21:53 145.870
AIST 2D 20 Oct 11:32:32 11:35:55 47° 74° (ENE) 11:39:18 435.315
NO-84 20 Oct 11:46:08 11:49:34 34° 229° (SW) 11:52:44 435.350 FM
BEESAT 3 20 Oct 11:49:54 11:51:27 12° 109° (ESE) 11:52:59 437.485
EO-79 20 Oct 11:50:06 11:53:52 31° 69° (ENE) 11:57:40 145.935-145.965
POLYITAN 1 20 Oct 11:54:39 11:58:33 35° 70° (ENE) 12:02:28 437.675
EO-88 20 Oct 12:00:29 12:03:52 37° 288° (WNW) 12:07:14 145.990 - 145.960
PRISM 20 Oct 12:00:52 12:03:42 18° 267° (W) 12:06:32 437.425
nSIGHT-1 20 Oct 12:02:32 12:05:35 40° 335° (NNW) 12:08:38 .
Max Valier Satellite 20 Oct 12:10:29 12:13:22 22° 292° (WNW) 12:16:12 145.860
QB50P2 20 Oct 12:14:32 12:18:45 64° 74° (ENE) 12:23:01 145.880/145.840
NANOSAT C BR1 20 Oct 12:17:56 12:22:05 56° 73° (ENE) 12:26:17 145.865
YUBILEINY 20 Oct 12:26:21 12:32:49 23° 297° (WNW) 12:39:21 435.215
DUCHIFAT 1 20 Oct 12:28:41 12:32:52 64° 74° (ENE) 12:37:07 145.980
ISS 20 Oct 12:35:24 12:38:19 29° 340° (NNW) 12:41:14 437.550
BUGSAT 1 20 Oct 12:37:49 12:41:02 22° 66° (ENE) 12:44:17 437.445
RS-15 20 Oct 12:47:52 12:56:37 26° 260° (W) 13:05:05 29.354- 29.394
LO-87 20 Oct 12:50:04 12:53:43 77° 284° (WNW) 12:57:19 145.935 - 145.965
Oscar 19 20 Oct 12:55:37 12:59:28 22° 63° (ENE) 13:03:20 437.125/150
VELOX 1 20 Oct 12:55:48 12:57:33 12° 90° (E) 12:59:18 145.980
ESTCUBE 1 20 Oct 13:03:51 13:08:22 87° 106° (ESE) 13:12:50 437.505/2401.250
BEESAT 2 20 Oct 13:08:21 13:11:39 25° 114° (ESE) 13:14:58 435.950
AIST 2D 20 Oct 13:08:47 13:09:22 10° 270° (W) 13:09:56 435.315
BEESAT 3 20 Oct 13:24:27 13:28:26 66° 306° (NW) 13:32:27 437.485
Gurwin Techsat 1B 20 Oct 13:25:55 13:30:24 29° 65° (ENE) 13:34:54 435.225
EO-79 20 Oct 13:26:11 13:29:38 24° 266° (W) 13:33:06 145.935-145.965
POLYITAN 1 20 Oct 13:31:07 13:34:24 21° 266° (W) 13:37:42 437.675
M-CUBED/EXP-1 PRIME 20 Oct 13:33:00 13:36:14 43° 68° (ENE) 13:39:21 437.505
nSIGHT-1 20 Oct 13:40:12 13:42:29 18° 354° (N) 13:44:46 .
SPROUT 20 Oct 13:45:20 13:49:36 62° 101° (E) 13:53:51 437.525
QB50P2 20 Oct 13:53:26 13:54:58 12° 271° (W) 13:56:30 145.880/145.840
NANOSAT C BR1 20 Oct 13:56:04 13:58:08 13° 270° (W) 14:00:13 145.865
DX 1 20 Oct 14:01:29 14:04:02 15° 92° (E) 14:06:34 434.975-435.025
DUCHIFAT 1 20 Oct 14:07:30 14:08:57 11° 271° (W) 14:10:24 145.980
BUGSAT 1 20 Oct 14:12:22 14:16:10 34° 263° (W) 14:20:03 437.445
ISS 20 Oct 14:13:13 14:15:32 18° 360° (N) 14:17:50 437.550
AO-7 20 Oct 14:15:00 14:21:26 26° 53° (NE) 14:27:52 .
SO-50 20 Oct 14:18:26 14:19:49 11° 31° (NNE) 14:21:13 436.795
UKube-1 20 Oct 14:25:17 14:28:08 17° 93° (E) 14:30:58 .
AO-85 20 Oct 14:29:09 14:33:01 70° 305° (NW) 14:37:00 145.980
VELOX 1 20 Oct 14:30:00 14:34:25 67° 286° (WNW) 14:38:49 145.980
Oscar 19 20 Oct 14:33:24 14:38:25 51° 260° (W) 14:43:28 437.125/150
ESTCUBE 1 20 Oct 14:43:25 14:44:27 11° 301° (WNW) 14:45:28 437.505/2401.250
BEESAT 2 20 Oct 14:45:34 14:49:14 33° 311° (NW) 14:52:57 435.950
Gurwin Techsat 1B 20 Oct 15:05:14 15:10:11 39° 262° (W) 15:15:09 435.225
50 SAT 20 Oct 15:05:34 15:08:53 72° 283° (WNW) 15:12:09 437.505
BEESAT 3 20 Oct 15:05:43 15:06:45 11° 325° (NW) 15:07:48 437.485
ITAMSAT 1 20 Oct 15:07:09 15:11:13 24° 63° (ENE) 15:15:20 435.822/435.867
M-CUBED/EXP-1 PRIME 20 Oct 15:10:18 15:10:53 10° 262° (W) 15:11:27 437.505
nSIGHT-1 20 Oct 15:16:58 15:19:34 22° 15° (NNE) 15:22:09 .
SPROUT 20 Oct 15:22:48 15:24:59 14° 298° (WNW) 15:27:08 437.525
ITUPSAT 1 20 Oct 15:33:21 15:35:17 12° 89° (E) 15:37:11 437.325
DX 1 20 Oct 15:36:15 15:40:30 52° 288° (WNW) 15:44:45 434.975-435.025
BEESAT 20 Oct 15:47:43 15:50:58 18° 92° (E) 15:54:11 436.000
ISS 20 Oct 15:49:51 15:52:45 28° 20° (NNE) 15:55:40 437.550
SO-50 20 Oct 15:56:48 16:01:19 53° 52° (NE) 16:05:53 436.795
UKube-1 20 Oct 16:00:14 16:04:22 45° 289° (WNW) 16:08:29 .
AO-7 20 Oct 16:05:03 16:13:22 81° 252° (WSW) 16:21:42 .
PCSat 20 Oct 16:10:53 16:13:28 13° 35° (NE) 16:16:01 145.827
AO-85 20 Oct 16:13:10 16:14:13 11° 327° (NNW) 16:15:17 145.980
MOZHAYETS 4 20 Oct 16:38:31 16:43:06 67° 101° (E) 16:47:37
ITAMSAT 1 20 Oct 16:45:24 16:50:24 47° 261° (W) 16:55:25 435.822/435.867
CUBESAT XI-V 20 Oct 16:50:43 16:54:08 20° 93° (E) 16:57:33 437.345
nSIGHT-1 20 Oct 16:52:59 16:56:11 86° 25° (NNE) 16:59:24 .
ITUPSAT 1 20 Oct 17:08:50 17:13:38 74° 286° (WNW) 17:18:23 437.325
CUTE-I 20 Oct 17:18:33 17:21:15 14° 58° (ENE) 17:23:57 437.470
BEESAT 20 Oct 17:24:23 17:29:01 51° 289° (WNW) 17:33:37 436.000
ISS 20 Oct 17:26:11 17:29:23 53° 218° (SW) 17:32:35 437.550
DOVE 4 20 Oct 17:29:22 17:33:27 56° 73° (ENE) 17:37:44 437.250
SO-50 20 Oct 17:38:06 17:41:25 20° 249° (WSW) 17:44:45 436.795
XW-2C 20 Oct 17:38:46 17:41:05 16° 66° (ENE) 17:43:25 145.795 - 145.815
HO-68 20 Oct 17:48:37 17:53:03 18° 52° (NE) 17:57:30 435.675
PCSat 20 Oct 17:52:38 17:58:01 60° 56° (NE) 18:03:22 145.827
AO-7 20 Oct 18:02:40 18:07:20 16° 271° (W) 18:12:01 .
KKS-1 20 Oct 18:04:47 18:08:51 33° 97° (E) 18:12:54 437.445
MOZHAYETS 4 20 Oct 18:17:19 18:19:41 14° 299° (WNW) 18:22:02
KAITUO 1B 20 Oct 18:20:10 18:23:32 33° 71° (ENE) 18:26:55 145.475/437.950
XW-2F 20 Oct 18:22:00 18:25:37 45° 73° (ENE) 18:29:14 145.980 - 146.000
CUBESAT XI-V 20 Oct 18:27:21 18:31:40 41° 289° (WNW) 18:35:59 437.345
LilacSat-2 20 Oct 18:27:26 18:31:12 62° 76° (ENE) 18:34:59 437.200
nSIGHT-1 20 Oct 18:30:52 18:32:02 12° 229° (SW) 18:33:11 .
CUTE 1.7 + AOD 2 20 Oct 18:31:24 18:33:52 15° 64° (ENE) 18:36:18 437.475
NUDT-PHONESAT 20 Oct 18:33:48 18:37:22 46° 74° (ENE) 18:40:57 437.300
XW-2D 20 Oct 18:34:22 18:38:09 73° 77° (ENE) 18:41:56 145.860 - 145.880
STARS 20 Oct 18:37:07 18:41:02 29° 96° (E) 18:44:55 437.465
SEEDS 20 Oct 18:39:27 18:40:43 11° 62° (ENE) 18:41:59 437.485
XW-2B 20 Oct 18:47:49 18:51:37 80° 258° (WSW) 18:55:25 145.730 - 145.750
CUTE-I 20 Oct 18:55:13 19:00:32 87° 255° (WSW) 19:05:55 437.470
DOVE 4 20 Oct 19:09:47 19:11:37 13° 272° (W) 19:13:29 437.250
XW-2C 20 Oct 19:11:22 19:14:57 39° 262° (W) 19:18:32 145.795 - 145.815
AO-73 20 Oct 19:27:40 19:29:00 11° 60° (ENE) 19:30:19 145.935
CUBEBUG 2 20 Oct 19:31:46 19:36:08 41° 71° (ENE) 19:40:36 437.445
HO-68 20 Oct 19:32:33 19:39:42 82° 72° (ENE) 19:46:56 435.675
PCSat 20 Oct 19:37:03 19:40:55 20° 254° (WSW) 19:44:46 145.827
KKS-1 20 Oct 19:41:34 19:45:15 25° 294° (WNW) 19:48:54 437.445
ZACube-1 20 Oct 19:47:36 19:50:55 20° 65° (ENE) 19:54:13 437.345
KAITUO 1B 20 Oct 19:55:08 19:57:36 17° 267° (W) 20:00:04 145.475/437.950
XW-2F 20 Oct 19:58:14 19:59:58 13° 269° (W) 20:01:42 145.980 - 146.000
XW-2A 20 Oct 20:03:31 20:06:50 51° 74° (ENE) 20:10:10 145.665 - 145.685
BEESAT 3 20 Oct 20:04:06 20:06:04 13° 38° (NE) 20:08:02 437.485
CUTE 1.7 + AOD 2 20 Oct 20:05:08 20:09:16 52° 261° (W) 20:13:24 437.475
UWE-3 20 Oct 20:09:07 20:13:41 57° 73° (ENE) 20:18:17 435.000/436.395/437.385
NUDT-PHONESAT 20 Oct 20:10:00 20:11:29 12° 269° (W) 20:12:58 437.300
O/OREOS (USA 219) 20 Oct 20:11:10 20:12:51 12° 97° (E) 20:14:32 437.305
SEEDS 20 Oct 20:11:38 20:15:48 72° 259° (W) 20:19:59 437.485
STARS 20 Oct 20:13:31 20:17:16 27° 293° (WNW) 20:21:01 437.465
Oscar 11 20 Oct 20:23:33 20:27:10 26° 68° (ENE) 20:30:48 .
AAUSAT CUBESAT 2 20 Oct 20:34:41 20:38:47 90° 57° (ENE) 20:42:55 437.432
YUBILEINY 20 Oct 20:35:23 20:43:42 43° 72° (ENE) 20:51:58 435.215
CUTE-I 20 Oct 20:40:04 20:41:20 11° 273° (W) 20:42:35 437.470
AO-73 20 Oct 20:59:56 21:04:31 87° 261° (W) 21:09:06 145.935
STRAND 1 20 Oct 21:01:13 21:06:25 82° 104° (ESE) 21:11:34 437.568
FO-29 20 Oct 21:01:25 21:06:38 22° 91° (E) 21:12:08 435.910
CUBEBUG 2 20 Oct 21:09:15 21:12:53 22° 268° (W) 21:16:34 437.445
Max Valier Satellite 20 Oct 21:17:05 21:19:07 14° 65° (ENE) 21:21:08 145.860
AO-85 20 Oct 21:18:59 21:22:13 19° 42° (NE) 21:25:37 145.980
ZACube-1 20 Oct 21:22:27 21:26:51 45° 262° (W) 21:31:16 437.345
HO-68 20 Oct 21:23:25 21:28:12 19° 270° (W) 21:33:03 435.675
BEESAT 2 20 Oct 21:24:36 21:27:53 23° 44° (NE) 21:31:08 435.950
BEESAT 3 20 Oct 21:40:13 21:44:13 88° 232° (SW) 21:48:06 437.485
O/OREOS (USA 219) 20 Oct 21:47:03 21:51:35 71° 294° (WNW) 21:56:12 437.305
UWE-3 20 Oct 21:47:43 21:50:28 15° 270° (W) 21:53:15 435.000/436.395/437.385
Oscar 11 20 Oct 21:59:26 22:03:12 29° 264° (W) 22:07:00 .
DELFI C3 20 Oct 21:59:34 22:03:25 63° 74° (ENE) 22:07:17 145.870
ESTCUBE 1 20 Oct 22:32:10 22:32:14 10° 59° (ENE) 22:32:18 437.505/2401.250
YUBILEINY 20 Oct 22:32:20 22:40:28 44° 273° (W) 22:48:37 435.215
EO-88 20 Oct 22:38:07 22:41:46 83° 257° (WSW) 22:45:26 145.990 - 145.960
UNISAT 6 20 Oct 22:42:10 22:46:17 31° 95° (E) 22:50:18 437.425
STRAND 1 20 Oct 22:42:13 22:44:53 14° 301° (WNW) 22:47:34 437.568
FO-29 20 Oct 22:45:13 22:52:06 77° 286° (WNW) 22:59:42 435.910
Max Valier Satellite 20 Oct 22:49:00 22:52:34 43° 261° (W) 22:56:09 145.860
TIGRISAT 20 Oct 22:56:41 23:01:03 41° 97° (E) 23:05:18 435.000
AO-85 20 Oct 22:58:28 23:03:01 70° 239° (WSW) 23:07:55 145.980
BEESAT 2 20 Oct 23:01:58 23:05:46 39° 243° (WSW) 23:09:29 435.950
LO-87 20 Oct 23:26:26 23:29:52 44° 73° (ENE) 23:33:20 145.935 - 145.965
PRISM 20 Oct 23:39:26 23:43:29 53° 101° (E) 23:47:31 437.425
VELOX 1 20 Oct 23:54:06 23:56:08 13° 61° (ENE) 23:58:10 145.980
ESTCUBE 1 21 Oct 00:03:47 00:08:17 87° 74° (ENE) 00:12:48 437.505/2401.250
UNISAT 6 21 Oct 00:18:59 00:22:52 27° 293° (WNW) 00:26:40 437.425
AIST 2D 21 Oct 00:29:20 00:32:43 51° 99° (E) 00:36:06 435.315
FO-29 21 Oct 00:32:18 00:36:14 16° 303° (WNW) 00:40:23 435.910
TIGRISAT 21 Oct 00:33:57 00:37:27 22° 295° (WNW) 00:40:53 435.000
SPROUT 21 Oct 00:39:01 00:43:09 51° 73° (ENE) 00:47:20 437.525
RS-15 21 Oct 00:56:30 01:08:13 54° 112° (ESE) 01:19:56 29.354- 29.394
DX 1 21 Oct 00:58:08 01:00:42 16° 62° (ENE) 01:03:18 434.975-435.025
LO-87 21 Oct 01:02:10 01:03:31 12° 269° (W) 01:04:52 145.935 - 145.965
EO-79 21 Oct 01:08:48 01:12:58 50° 100° (E) 01:17:05 145.935-145.965
POLYITAN 1 21 Oct 01:13:39 01:17:53 57° 101° (E) 01:22:03 437.675
PRISM 21 Oct 01:16:02 01:18:19 15° 297° (WNW) 01:20:37 437.425
UKube-1 21 Oct 01:20:46 01:23:35 17° 63° (ENE) 01:26:24 .
VELOX 1 21 Oct 01:27:40 01:32:01 68° 258° (WSW) 01:36:24 145.980
QB50P2 21 Oct 01:33:58 01:38:15 76° 284° (WNW) 01:42:28 145.880/145.840
50 SAT 21 Oct 01:34:44 01:37:44 36° 72° (ENE) 01:40:47 437.505
NANOSAT C BR1 21 Oct 01:36:37 01:40:54 88° 281° (W) 01:45:07 145.865
DUCHIFAT 1 21 Oct 01:47:04 01:51:19 78° 284° (WNW) 01:55:31 145.980
BUGSAT 1 21 Oct 01:52:54 01:56:40 30° 97° (E) 02:00:22 437.445
AIST 2D 21 Oct 02:04:49 02:05:26 10° 296° (WNW) 02:06:04 435.315
SPROUT 21 Oct 02:16:55 02:19:20 15° 269° (W) 02:21:46 437.525
DX 1 21 Oct 02:32:14 02:36:27 53° 260° (W) 02:40:43 434.975-435.025
ITUPSAT 1 21 Oct 02:40:24 02:43:34 18° 62° (ENE) 02:46:45 437.325
M-CUBED/EXP-1 PRIME 21 Oct 02:43:41 02:46:47 27° 103° (ESE) 02:50:04 437.505
Oscar 19 21 Oct 02:43:49 02:48:50 51° 100° (E) 02:53:47 437.125/150
EO-79 21 Oct 02:45:42 02:48:18 16° 297° (WNW) 02:50:53 145.935-145.965
POLYITAN 1 21 Oct 02:50:52 02:53:10 14° 297° (WNW) 02:55:27 437.675
BEESAT 21 Oct 02:54:43 02:58:32 24° 65° (ENE) 03:02:21 436.000
UKube-1 21 Oct 02:55:06 02:59:13 47° 260° (W) 03:03:24 .
NO-84 21 Oct 03:01:13 03:04:41 24° 128° (SE) 03:08:09 435.350 FM
RS-15 21 Oct 03:08:49 03:20:50 55° 316° (NW) 03:32:48 29.354- 29.394
50 SAT 21 Oct 03:09:05 03:10:14 11° 268° (W) 03:11:23 437.505
Gurwin Techsat 1B 21 Oct 03:19:55 03:25:17 77° 103° (ESE) 03:30:35 435.225
BUGSAT 1 21 Oct 03:28:26 03:31:51 24° 293° (WNW) 03:35:14 437.445
MOZHAYETS 4 21 Oct 03:40:46 03:45:23 71° 74° (ENE) 03:50:00
CUBESAT XI-V 21 Oct 03:54:50 03:58:27 23° 66° (ENE) 04:02:04 437.345
AO-7 21 Oct 04:06:04 04:13:20 32° 96° (E) 04:20:33 .
ITUPSAT 1 21 Oct 04:16:12 04:20:56 57° 259° (W) 04:25:42 437.325
M-CUBED/EXP-1 PRIME 21 Oct 04:18:21 04:21:07 21° 296° (WNW) 04:24:01 437.505
